星链-33826 (STARLINK-33826)

导读

STARLINK-33826是美国太空探索技术公司SpaceX于2025年4月25日发射的星链项目卫星,属于星链低轨互联网星座的组成部分,运行于近地轨道。它主要为地面基础设施难以覆盖的偏远地区、海洋及空中提供高速低延迟的宽带互联网服务,同时该卫星也可支持军事通信与应急通信。该卫星的成功发射进一步扩充了星链星座规模,推动全球卫星互联网覆盖能力提升。

基本信息
目录编号:
63641
目录名称:
STARLINK-33826
国际标识:
2025-083H
轨道中心:
EARTH
卫星名称:
星链-33826
卫星全名:
星链-33826 (STARLINK-33826)
卫星状态:
在轨 (已飞行504 天)
发射日期:
2025-04-25 UTC
国别 :
美国 (US)
星等 :
--
该卫星已列入 空间交会检测服务 Space Conjunction Data Service (SCDS) ,当前飞行风险评估等级: 无高风险
轨道信息
数据来源 国际轨道数据
星历时间: 2026-09-10T10:42:23+0800
1天前
查看轨道信息
半长轴: 6861.158km
偏心率: 0.0001958
轨道倾角: 42.999°
近地点辐角 272.396°
升交点赤经 43.544°
平近点角 87.667°
近地点: 481.677km
远地点: 484.365km
周期: 94.266分钟
每日圈数: 15.275895
详细信息
固有亮度:
5
最大亮度:
2.5
卫星平台:
Starlink V1.0
覆盖范围:
全球
运营商:
太空探索技术公司
运营商所在国:
美国
制造商(研发单位):
太空探索技术公司
制造商所在国:
美国
使用方式:
暂无
卫星简介
Starlink 计划是 SpaceX 推出的全球卫星互联网项目,通过发射低轨道卫星,为全球尤其是偏远地区提供高速、低延迟的互联网服务。自 2019 年起,Starlink 已部署数千颗卫星,旨在缩小全球数字鸿沟,推动互联网普及。该项目还为军事、航空等行业提供通信支持,带来广泛经济效益。
2D轨道图
3D轨道图
轨道高度分析图
轨道倾角分析图
轨道综合分析图
查看轨道综合分析图
交会数据列表
事件ID 空间交会对象 最接近时刻(TCA) 交会距离 交会风险概率(CRP) 交会风险指数(CRI) 操作
CDM_260912-231106-364106-784621
2026-09-12T
23:11:04+0000
0.257 km
中距离
4.803358E-4 高风险 0.89
CDM_260913-081505-964106-364121
2026-09-13T
08:15:04+0000
0.449 km
远距离
2.024501E-4 高风险 0.81
CDM_260913-190305-601306-364121
2026-09-13T
19:03:48+0000
0.539 km
远距离
8.610595E-5 中风险 0.74
CDM_260913-215606-364106-784621
2026-09-13T
21:56:15+0000
0.721 km
远距离
5.093553E-5 中风险 0.69
CDM_260913-112405-612506-364122
2026-09-13T
11:24:38+0000
0.851 km
远距离
3.517033E-5 中风险 0.66
CDM_260913-205105-610406-364121
2026-09-13T
20:51:52+0000
0.878 km
远距离
3.239555E-5 中风险 0.65
CDM_260913-114606-249006-364121
2026-09-13T
11:46:56+0000
0.797 km
远距离
3.229848E-5 中风险 0.65
CDM_260913-112305-818506-364121
2026-09-13T
11:23:59+0000
0.883 km
远距离
3.085428E-5 中风险 0.65
CDM_260913-014605-603106-364121
2026-09-13T
01:46:39+0000
0.869 km
远距离
1.629554E-5 中风险 0.59
CDM_260912-213606-364106-784621
2026-09-12T
21:36:55+0000
1.024 km
极远距离
1.596526E-5 中风险 0.59
与全量物体交会距离演化趋势
与全量物体交会风险概率演化趋势